When you browse on this site, cookies collect data to enhance your experience and personalize the content and advertising you see.
Visit our Privacy Policy to learn more. By continuing to use the site, you agree to this use of cookies and data.
  • In Czech Republic
  • List of Countries
  • For 7 days
  • Water Temperature
  • Satellite Maps
  • Weather Map
  • Weather Widgets
  • user-avatar
    Login

    Hourly Weather Nkongsamba

    Today, 19 April, Friday

    Time Temperature Precipitation Wind Pressure Humidity
    00:00 +21°C° 0 mm 0 mps 685 mmHg 83%
    01:00 +20°C° 0 mm 0 mps 685 mmHg 83%
    02:00 +20°C° 0 mm 0 mps 685 mmHg 83%
    03:00 +20°C° 0 mm 0 mps 685 mmHg 83%
    04:00 +20°C° 0 mm 0 mps 684 mmHg 83%
    05:00 +20°C° 0 mm 0 mps 685 mmHg 82%
    06:00 +20°C° 0 mm 0 mps 685 mmHg 80%
    07:00 +21°C° 0 mm 0 mps 685 mmHg 78%
    08:00 +23°C° 0 mm 0 mps 686 mmHg 71%
    09:00 +27°C° 0 mm 1 mps 687 mmHg 63%
    10:00 +29°C° 0 mm 1 mps 687 mmHg 56%
    11:00 +31°C° 0 mm 1 mps 687 mmHg 52%
    12:00 +32°C° 0 mm 1 mps 687 mmHg 48%
    13:00 +34°C° 0 mm 2 mps 687 mmHg 44%
    14:00 +33°C° 0.1 mm 1 mps 686 mmHg 46%
    15:00 +32°C° 0.1 mm 1 mps 685 mmHg 49%
    16:00 +32°C° 0.1 mm 1 mps 685 mmHg 51%
    17:00 +29°C° 1.5 mm 1 mps 685 mmHg 61%
    18:00 +27°C° 1.5 mm 1 mps 685 mmHg 71%
    19:00 +25°C° 1.5 mm 1 mps 685 mmHg 81%
    20:00 +24°C° 1 mm 1 mps 685 mmHg 85%
    21:00 +22°C° 1 mm 0 mps 685 mmHg 88%
    22:00 +21°C° 1 mm 0 mps 685 mmHg 92%
    23:00 +21°C° 0 mm 0 mps 685 mmHg 92%

    Tomorrow, 20 April, Saturday

    Time Temperature Precipitation Wind Pressure Humidity
    00:00 +21°C° 0 mm 0 mps 685 mmHg 92%
    01:00 +21°C° 0 mm 0 mps 685 mmHg 92%
    02:00 +20°C° 0.3 mm 0 mps 685 mmHg 93%
    03:00 +20°C° 0.3 mm 0 mps 685 mmHg 94%
    04:00 +20°C° 0.3 mm 0 mps 685 mmHg 94%
    05:00 +20°C° 0.1 mm 0 mps 685 mmHg 93%
    06:00 +20°C° 0.1 mm 0 mps 685 mmHg 92%
    07:00 +21°C° 0.1 mm 0 mps 685 mmHg 91%
    08:00 +23°C° 0.1 mm 0 mps 686 mmHg 82%
    09:00 +27°C° 0.1 mm 1 mps 687 mmHg 74%
    10:00 +29°C° 0.1 mm 1 mps 687 mmHg 65%
    11:00 +30°C° 0.5 mm 1 mps 687 mmHg 61%
    12:00 +31°C° 0.5 mm 1 mps 687 mmHg 58%
    13:00 +32°C° 0.5 mm 2 mps 687 mmHg 55%
    14:00 +32°C° 0.9 mm 2 mps 686 mmHg 54%
    15:00 +32°C° 0.9 mm 2 mps 686 mmHg 53%
    16:00 +32°C° 0.9 mm 2 mps 685 mmHg 53%
    17:00 +29°C° 2.3 mm 1 mps 685 mmHg 64%
    18:00 +27°C° 2.3 mm 1 mps 685 mmHg 75%
    19:00 +24°C° 2.3 mm 1 mps 684 mmHg 86%
    20:00 +22°C° 0.4 mm 0 mps 685 mmHg 88%
    21:00 +22°C° 0.4 mm 0 mps 685 mmHg 90%
    22:00 +21°C° 0.4 mm 0 mps 685 mmHg 92%
    23:00 +21°C° 0.2 mm 0 mps 685 mmHg 92%

    Day after tomorrow, 21 April, Sunday

    Time Temperature Precipitation Wind Pressure Humidity
    00:00 +21°C° 0.2 mm 0 mps 685 mmHg 93%
    01:00 +21°C° 0.2 mm 0 mps 685 mmHg 93%
    02:00 +20°C° 0.1 mm 0 mps 685 mmHg 92%
    03:00 +20°C° 0.1 mm 0 mps 684 mmHg 92%
    04:00 +20°C° 0.1 mm 0 mps 684 mmHg 91%
    05:00 +20°C° 0 mm 0 mps 684 mmHg 90%
    06:00 +21°C° 0 mm 0 mps 684 mmHg 88%
    07:00 +21°C° 0 mm 0 mps 685 mmHg 86%
    08:00 +23°C° 0 mm 0 mps 685 mmHg 79%
    09:00 +27°C° 0 mm 1 mps 686 mmHg 71%
    10:00 +29°C° 0 mm 1 mps 687 mmHg 63%
    11:00 +30°C° 0 mm 1 mps 686 mmHg 57%
    12:00 +32°C° 0 mm 1 mps 686 mmHg 51%
    13:00 +34°C° 0 mm 2 mps 686 mmHg 46%
    14:00 +32°C° 0.6 mm 2 mps 685 mmHg 48%
    15:00 +32°C° 0.6 mm 2 mps 684 mmHg 51%
    16:00 +32°C° 0.6 mm 2 mps 684 mmHg 54%
    17:00 +29°C° 2.4 mm 1 mps 684 mmHg 65%
    18:00 +27°C° 2.4 mm 1 mps 683 mmHg 76%
    19:00 +24°C° 2.4 mm 1 mps 683 mmHg 88%
    20:00 +24°C° 0.1 mm 1 mps 684 mmHg 89%
    21:00 +24°C° 0.1 mm 1 mps 684 mmHg 90%
    22:00 +23°C° 0.1 mm 1 mps 685 mmHg 92%
    23:00 +23°C° 0.2 mm 1 mps 685 mmHg 91%

    22 April, Monday

    Time Temperature Precipitation Wind Pressure Humidity
    00:00 +23°C° 0.2 mm 1 mps 685 mmHg 91%
    01:00 +23°C° 0.2 mm 1 mps 684 mmHg 91%
    02:00 +23°C° 2.2 mm 1 mps 684 mmHg 91%
    03:00 +23°C° 2.2 mm 1 mps 684 mmHg 92%
    04:00 +22°C° 2.2 mm 1 mps 683 mmHg 92%
    05:00 +22°C° 0.9 mm 1 mps 684 mmHg 92%
    06:00 +22°C° 0.9 mm 1 mps 684 mmHg 92%
    07:00 +22°C° 0.9 mm 1 mps 684 mmHg 91%
    08:00 +24°C° 0.1 mm 1 mps 685 mmHg 85%
    09:00 +23°C° 0.1 mm 0 mps 685 mmHg 78%
    10:00 +25°C° 0.1 mm 0 mps 686 mmHg 72%
    11:00 +27°C° 0.1 mm 0 mps 686 mmHg 62%
    12:00 +31°C° 0.1 mm 1 mps 686 mmHg 53%
    13:00 +33°C° 0.1 mm 1 mps 685 mmHg 43%
    14:00 +33°C° 0.5 mm 1 mps 685 mmHg 45%
    15:00 +32°C° 0.5 mm 1 mps 684 mmHg 48%
    16:00 +32°C° 0.5 mm 1 mps 683 mmHg 50%
    17:00 +30°C° 0.7 mm 1 mps 683 mmHg 59%
    18:00 +28°C° 0.7 mm 1 mps 684 mmHg 68%
    19:00 +26°C° 0.7 mm 1 mps 684 mmHg 77%
    20:00 +25°C° 0.1 mm 1 mps 684 mmHg 82%
    21:00 +22°C° 0.1 mm 0 mps 684 mmHg 87%
    22:00 +21°C° 0.1 mm 0 mps 684 mmHg 92%
    23:00 +21°C° 0.1 mm 0 mps 684 mmHg 93%

    23 April, Tuesday

    Time Temperature Precipitation Wind Pressure Humidity
    00:00 +21°C° 0.1 mm 0 mps 684 mmHg 94%
    01:00 +21°C° 0.1 mm 0 mps 684 mmHg 95%
    02:00 +21°C° 1 mm 0 mps 684 mmHg 95%
    03:00 +20°C° 1 mm 0 mps 684 mmHg 95%
    04:00 +20°C° 1 mm 0 mps 683 mmHg 95%
    05:00 +21°C° 1.6 mm 0 mps 684 mmHg 94%
    06:00 +21°C° 1.6 mm 0 mps 684 mmHg 92%
    07:00 +21°C° 1.6 mm 0 mps 685 mmHg 91%
    08:00 +22°C° 0.1 mm 0 mps 685 mmHg 87%
    09:00 +23°C° 0.1 mm 0 mps 685 mmHg 83%
    10:00 +24°C° 0.1 mm 0 mps 686 mmHg 80%
    11:00 +26°C° 0.1 mm 0 mps 685 mmHg 72%
    12:00 +27°C° 0.1 mm 0 mps 685 mmHg 64%
    13:00 +31°C° 0.1 mm 1 mps 685 mmHg 56%
    14:00 +31°C° 0 mm 1 mps 684 mmHg 53%
    15:00 +32°C° 0 mm 1 mps 684 mmHg 50%
    16:00 +33°C° 0 mm 1 mps 683 mmHg 47%
    17:00 +30°C° 0.6 mm 1 mps 684 mmHg 57%
    18:00 +28°C° 0.6 mm 1 mps 684 mmHg 68%
    19:00 +26°C° 0.6 mm 1 mps 684 mmHg 78%
    20:00 +25°C° 0.1 mm 1 mps 684 mmHg 82%
    21:00 +22°C° 0.1 mm 0 mps 684 mmHg 86%
    22:00 +21°C° 0.1 mm 0 mps 685 mmHg 90%
    23:00 +21°C° 0 mm 0 mps 684 mmHg 91%

    24 April, Wednesday

    Time Temperature Precipitation Wind Pressure Humidity
    00:00 +21°C° 0 mm 0 mps 684 mmHg 91%
    01:00 +21°C° 0 mm 0 mps 684 mmHg 91%
    02:00 +21°C° 0.1 mm 0 mps 683 mmHg 92%
    03:00 +21°C° 0.1 mm 0 mps 683 mmHg 92%
    04:00 +20°C° 0.1 mm 0 mps 683 mmHg 92%
    05:00 +21°C° 0 mm 0 mps 683 mmHg 92%
    06:00 +21°C° 0 mm 0 mps 684 mmHg 91%
    07:00 +21°C° 0 mm 0 mps 684 mmHg 91%
    08:00 +23°C° 0 mm 0 mps 685 mmHg 84%
    09:00 +25°C° 0 mm 0 mps 686 mmHg 76%
    10:00 +29°C° 0 mm 1 mps 686 mmHg 69%
    11:00 +30°C° 0.9 mm 1 mps 686 mmHg 65%
    12:00 +31°C° 0.9 mm 1 mps 685 mmHg 61%
    13:00 +33°C° 0.9 mm 1 mps 685 mmHg 57%
    14:00 +33°C° 1 mm 1 mps 685 mmHg 55%
    15:00 +33°C° 1 mm 1 mps 684 mmHg 54%
    16:00 +33°C° 1 mm 1 mps 684 mmHg 53%
    17:00 +30°C° 1.8 mm 1 mps 684 mmHg 64%
    18:00 +28°C° 1.8 mm 1 mps 684 mmHg 74%
    19:00 +25°C° 1.8 mm 1 mps 684 mmHg 85%
    20:00 +25°C° 0.7 mm 1 mps 685 mmHg 87%
    21:00 +22°C° 0.7 mm 0 mps 685 mmHg 89%
    22:00 +22°C° 0.7 mm 0 mps 685 mmHg 91%
    23:00 +22°C° 0.2 mm 0 mps 685 mmHg 92%
    Show more